Time,TemperatureF,DewpointF,PressureIn,WindDirection,WindDirectionDegrees,WindSpeedMPH,WindSpeedGustMPH,Humidity,HourlyPrecipIn,Conditions,Clouds,dailyrainin,SoftwareType,DateUTC
2013-03-10 00:00:00,34.0,32.5,29.74,North,0,5.0,12.0,94,0.02,,---,0.01,VWS V14.01,2013-03-10 06:00:00,
2013-03-10 00:02:00,34.6,33.0,29.74,NNW,345,3.0,9.0,94,0.02,,-RA,0.44,VWS V14.01,2013-03-10 06:02:00,
2013-03-10 00:05:00,34.0,32.5,29.74,NNW,338,4.0,11.0,94,0.02,,---,0.01,VWS V14.01,2013-03-10 06:05:00,
2013-03-10 00:10:00,34.0,32.5,29.74,North,0,4.0,10.0,94,0.02,,---,0.01,VWS V14.01,2013-03-10 06:10:00,
2013-03-10 00:12:00,34.4,32.9,29.74,NNW,327,5.0,8.0,94,0.02,,-RA,0.00,VWS V14.01,2013-03-10 06:12:00,
2013-03-10 00:15:00,34.0,32.5,29.74,North,0,4.0,7.0,94,0.02,,---,0.01,VWS V14.01,2013-03-10 06:15:00,
2013-03-10 00:17:00,34.3,32.8,29.74,NNW,329,2.0,7.0,94,0.02,,-RA,0.00,VWS V14.01,2013-03-10 06:17:00,
2013-03-10 00:20:00,34.0,32.5,29.74,North,0,5.0,13.0,94,0.01,,---,0.01,VWS V14.01,2013-03-10 06:20:00,
2013-03-10 00:25:00,34.1,32.6,29.74,North,0,5.0,10.0,94,0.01,,---,0.01,VWS V14.01,2013-03-10 06:25:00,
2013-03-10 00:27:00,34.1,32.6,29.74,NNW,345,3.0,9.0,94,0.01,,-RA,0.00,VWS V14.01,2013-03-10 06:27:00,
2013-03-10 00:30:00,34.1,32.6,29.75,North,0,5.0,14.0,94,0.01,,---,0.01,VWS V14.01,2013-03-10 06:30:00,
2013-03-10 00:32:00,34.1,32.6,29.74,NNW,340,4.0,9.0,94,0.01,,-RA,0.00,VWS V14.01,2013-03-10 06:32:00,
2013-03-10 00:35:00,34.1,32.6,29.75,NNW,338,4.0,10.0,94,0.01,,---,0.01,VWS V14.01,2013-03-10 06:35:00,
2013-03-10 00:37:00,34.1,32.6,29.74,North,11,3.0,7.0,94,0.01,,-RA,0.00,VWS V14.01,2013-03-10 06:37:00,
2013-03-10 00:40:00,34.1,32.6,29.75,North,0,3.0,7.0,94,0.01,,---,0.01,VWS V14.01,2013-03-10 06:40:00,
2013-03-10 00:42:00,34.1,32.6,29.74,NNW,341,5.0,8.0,94,0.01,,-RA,0.00,VWS V14.01,2013-03-10 06:42:00,
2013-03-10 00:45:00,34.0,32.2,29.74,North,0,5.0,10.0,93,0.01,,---,0.01,VWS V14.01,2013-03-10 06:45:00,
2013-03-10 00:47:00,34.0,32.5,29.74,North,355,1.0,10.0,94,0.01,,OVC005,0.00,VWS V14.01,2013-03-10 06:47:00,
2013-03-10 00:50:00,34.0,32.2,29.74,North,0,6.0,14.0,93,0.01,,---,0.01,VWS V14.01,2013-03-10 06:50:00,
2013-03-10 00:55:00,34.0,32.2,29.74,North,0,6.0,15.0,93,0.01,,---,0.01,VWS V14.01,2013-03-10 06:55:00,
2013-03-10 00:57:00,34.0,32.5,29.74,North,349,3.0,11.0,94,0.01,,OVC005,0.00,VWS V14.01,2013-03-10 06:57:00,
2013-03-10 01:00:00,34.0,32.2,29.74,NNW,348,5.0,11.0,93,0.01,,OVC011,0.00,VWS V14.01,2013-03-10 07:00:00,
2013-03-10 01:02:00,34.0,32.5,29.74,NNW,332,1.0,12.0,94,0.01,,,0.00,VWS V14.01,2013-03-10 07:02:00,
2013-03-10 01:05:00,34.0,32.2,29.74,North,355,7.0,15.0,93,0.00,,OVC011,0.00,VWS V14.01,2013-03-10 07:05:00,
2013-03-10 01:07:00,34.0,32.5,29.74,NNW,340,6.0,11.0,94,0.00,,,0.00,VWS V14.01,2013-03-10 07:07:00,
2013-03-10 01:10:00,34.0,32.2,29.74,North,355,2.0,10.0,93,0.00,,OVC011,0.00,VWS V14.01,2013-03-10 07:10:00,
2013-03-10 01:15:00,34.0,32.2,29.75,North,5,4.0,9.0,93,0.00,,OVC011,0.00,VWS V14.01,2013-03-10 07:15:00,
2013-03-10 01:17:00,34.0,32.5,29.74,NE,36,5.0,9.0,94,0.00,,,0.00,VWS V14.01,2013-03-10 07:17:00,
2013-03-10 01:20:00,34.0,32.2,29.75,NNE,16,9.0,11.0,93,0.00,,OVC011,0.00,VWS V14.01,2013-03-10 07:20:00,
2013-03-10 01:22:00,34.0,32.5,29.74,NNW,333,6.0,13.0,94,0.00,,,0.00,VWS V14.01,2013-03-10 07:22:00,
2013-03-10 01:25:00,34.0,32.2,29.75,North,9,4.0,11.0,93,0.00,,OVC011,0.00,VWS V14.01,2013-03-10 07:25:00,
2013-03-10 01:27:00,34.1,32.6,29.74,North,350,6.0,9.0,94,0.00,,,0.00,VWS V14.01,2013-03-10 07:27:00,
2013-03-10 01:30:00,34.1,32.3,29.76,North,350,6.0,12.0,93,0.00,,OVC011,0.00,VWS V14.01,2013-03-10 07:30:00,
2013-03-10 01:32:00,34.1,32.6,29.75,North,351,4.0,14.0,94,0.00,,,0.00,VWS V14.01,2013-03-10 07:32:00,
2013-03-10 01:35:00,34.0,32.2,29.76,NNE,27,3.0,10.0,93,0.00,,OVC011,0.00,VWS V14.01,2013-03-10 07:35:00,
2013-03-10 01:37:00,34.0,32.5,29.75,North,360,4.0,10.0,94,0.00,,,0.00,VWS V14.01,2013-03-10 07:37:00,
2013-03-10 01:40:00,34.1,32.3,29.76,NNW,347,3.0,12.0,93,0.00,,OVC011,0.00,VWS V14.01,2013-03-10 07:40:00,
2013-03-10 01:42:00,34.1,32.6,29.75,NNW,340,5.0,7.0,94,0.00,,,0.00,VWS V14.01,2013-03-10 07:42:00,
2013-03-10 01:45:00,34.0,31.9,29.75,North,9,1.0,11.0,92,0.00,,OVC011,0.00,VWS V14.01,2013-03-10 07:45:00,
2013-03-10 01:47:00,34.0,32.2,29.74,NNE,20,4.0,10.0,93,0.00,,,0.00,VWS V14.01,2013-03-10 07:47:00,
2013-03-10 01:50:00,34.1,32.0,29.75,North,349,6.0,10.0,92,0.00,,OVC011,0.00,VWS V14.01,2013-03-10 07:50:00,
2013-03-10 01:52:00,34.0,32.2,29.74,NNW,339,9.0,14.0,93,0.00,,,0.00,VWS V14.01,2013-03-10 07:52:00,
2013-03-10 01:55:00,34.1,32.0,29.75,North,355,0.0,9.0,92,0.00,,OVC011,0.00,VWS V14.01,2013-03-10 07:55:00,
2013-03-10 01:57:00,34.0,32.2,29.74,North,10,7.0,15.0,93,0.00,,,0.00,VWS V14.01,2013-03-10 07:57:00,
2013-03-10 03:00:00,34.0,31.9,29.77,North,5,4.0,7.0,92,0.00,,OVC011,0.00,VWS V14.01,2013-03-10 08:00:00,
2013-03-10 03:05:00,34.0,31.9,29.77,NNE,17,3.0,10.0,92,0.00,,OVC011,0.00,VWS V14.01,2013-03-10 08:05:00,
2013-03-10 03:10:00,34.0,31.9,29.77,North,360,4.0,9.0,92,0.00,,OVC011,0.00,VWS V14.01,2013-03-10 08:10:00,
2013-03-10 03:15:00,34.0,31.9,29.77,NNE,26,6.0,10.0,92,0.00,,OVC011,0.00,VWS V14.01,2013-03-10 08:15:00,
2013-03-10 03:20:00,34.0,31.9,29.77,North,355,9.0,12.0,92,0.00,,OVC011,0.00,VWS V14.01,2013-03-10 08:20:00,
2013-03-10 03:25:00,34.0,31.9,29.77,North,355,5.0,13.0,92,0.00,,OVC011,0.00,VWS V14.01,2013-03-10 08:25:00,
2013-03-10 03:30:00,34.0,31.9,29.77,NNE,15,4.0,6.0,92,0.00,,OVC011,0.00,VWS V14.01,2013-03-10 08:30:00,
2013-03-10 03:35:00,34.0,31.6,29.77,ENE,62,6.0,9.0,91,0.00,,OVC011,0.00,VWS V14.01,2013-03-10 08:35:00,
2013-03-10 03:40:00,34.0,31.6,29.77,NNE,23,8.0,11.0,91,0.00,,OVC011,0.00,VWS V14.01,2013-03-10 08:40:00,
2013-03-10 03:45:00,34.0,31.6,29.77,North,355,5.0,10.0,91,0.00,,OVC011,0.00,VWS V14.01,2013-03-10 08:45:00,
2013-03-10 03:50:00,34.0,31.4,29.77,North,5,2.0,7.0,90,0.00,,OVC011,0.00,VWS V14.01,2013-03-10 08:50:00,
2013-03-10 03:55:00,34.0,31.4,29.77,NNE,12,7.0,9.0,90,0.00,,OVC011,0.00,VWS V14.01,2013-03-10 08:55:00,
2013-03-10 04:00:00,34.0,31.4,29.76,NNE,29,5.0,13.0,90,0.00,,OVC015,0.00,VWS V14.01,2013-03-10 09:00:00,
2013-03-10 04:05:00,34.0,31.1,29.76,NNE,32,5.0,10.0,89,0.00,,OVC015,0.00,VWS V14.01,2013-03-10 09:05:00,
2013-03-10 04:10:00,33.8,30.9,29.76,NNW,346,6.0,13.0,89,0.00,,OVC015,0.00,VWS V14.01,2013-03-10 09:10:00,
2013-03-10 04:15:00,33.8,30.9,29.76,NNE,19,4.0,14.0,89,0.00,,OVC015,0.00,VWS V14.01,2013-03-10 09:15:00,
2013-03-10 04:20:00,33.8,30.9,29.76,NNE,29,3.0,12.0,89,0.00,,OVC015,0.00,VWS V14.01,2013-03-10 09:20:00,
2013-03-10 04:25:00,33.8,30.6,29.76,North,360,6.0,16.0,88,0.00,,OVC015,0.00,VWS V14.01,2013-03-10 09:25:00,
2013-03-10 04:30:00,33.8,30.6,29.76,NNE,32,7.0,15.0,88,0.00,,OVC015,0.00,VWS V14.01,2013-03-10 09:30:00,
2013-03-10 04:35:00,33.8,30.6,29.76,North,351,11.0,20.0,88,0.00,,OVC015,0.00,VWS V14.01,2013-03-10 09:35:00,
2013-03-10 04:40:00,34.0,30.5,29.76,NNE,15,6.0,14.0,87,0.00,,OVC015,0.00,VWS V14.01,2013-03-10 09:40:00,
2013-03-10 04:45:00,34.0,30.3,29.78,North,360,6.0,17.0,86,0.00,,OVC015,0.00,VWS V14.01,2013-03-10 09:45:00,
2013-03-10 04:50:00,34.0,30.3,29.78,NE,41,4.0,10.0,86,0.00,,OVC015,0.00,VWS V14.01,2013-03-10 09:50:00,
2013-03-10 04:55:00,34.0,30.3,29.78,NNW,341,6.0,15.0,86,0.00,,OVC015,0.00,VWS V14.01,2013-03-10 09:55:00,
2013-03-10 05:00:00,34.0,30.3,29.80,NNE,24,7.0,10.0,86,0.00,,OVC015,0.00,VWS V14.01,2013-03-10 10:00:00,
2013-03-10 05:05:00,34.0,30.3,29.80,North,9,7.0,11.0,86,0.00,,OVC015,0.00,VWS V14.01,2013-03-10 10:05:00,
2013-03-10 05:10:00,34.0,30.3,29.80,North,9,3.0,11.0,86,0.00,,OVC015,0.00,VWS V14.01,2013-03-10 10:10:00,
2013-03-10 05:15:00,34.0,30.3,29.80,NNE,22,4.0,11.0,86,0.00,,OVC015,0.00,VWS V14.01,2013-03-10 10:15:00,
2013-03-10 05:20:00,34.0,30.3,29.80,NNE,28,4.0,13.0,86,0.00,,OVC015,0.00,VWS V14.01,2013-03-10 10:20:00,
2013-03-10 05:25:00,34.0,30.3,29.80,North,360,2.0,10.0,86,0.00,,OVC015,0.00,VWS V14.01,2013-03-10 10:25:00,
2013-03-10 05:30:00,34.0,30.3,29.81,North,355,8.0,11.0,86,0.00,,OVC015,0.00,VWS V14.01,2013-03-10 10:30:00,
2013-03-10 05:35:00,34.0,30.0,29.81,NE,34,5.0,12.0,85,0.00,,OVC015,0.00,VWS V14.01,2013-03-10 10:35:00,
2013-03-10 05:40:00,34.0,30.0,29.81,NNE,15,6.0,12.0,85,0.00,,OVC015,0.00,VWS V14.01,2013-03-10 10:40:00,
2013-03-10 05:45:00,33.8,29.8,29.79,NE,46,5.0,14.0,85,0.00,,OVC013,0.00,VWS V14.01,2013-03-10 10:45:00,
2013-03-10 05:50:00,33.8,29.8,29.79,NNE,22,6.0,11.0,85,0.00,,---,0.01,VWS V14.01,2013-03-10 10:50:00,
2013-03-10 05:55:00,33.8,29.8,29.79,North,0,7.0,15.0,85,0.00,,---,0.01,VWS V14.01,2013-03-10 10:55:00,
2013-03-10 06:00:00,34.0,30.0,29.83,NNE,27,3.0,14.0,85,0.00,,,0.00,VWS V14.01,2013-03-10 11:00:00,
2013-03-10 06:05:00,33.8,29.5,29.83,NE,51,4.0,9.0,84,0.00,,,0.00,VWS V14.01,2013-03-10 11:05:00,
2013-03-10 06:10:00,33.8,29.5,29.83,NNE,22,3.0,9.0,84,0.00,,---,0.01,VWS V14.01,2013-03-10 11:10:00,
2013-03-10 06:15:00,33.8,29.5,29.82,NNE,22,4.0,11.0,84,0.00,,---,0.01,VWS V14.01,2013-03-10 11:15:00,
2013-03-10 06:20:00,33.8,29.2,29.82,NNE,22,5.0,11.0,83,0.00,,---,0.01,VWS V14.01,2013-03-10 11:20:00,
2013-03-10 06:25:00,33.8,29.2,29.82,NNE,22,5.0,14.0,83,0.00,,---,0.01,VWS V14.01,2013-03-10 11:25:00,
2013-03-10 06:30:00,34.0,29.4,29.81,NNE,22,6.0,13.0,83,0.00,,---,0.01,VWS V14.01,2013-03-10 11:30:00,
2013-03-10 06:35:00,34.0,29.1,29.81,NNE,15,4.0,13.0,82,0.00,,,0.00,VWS V14.01,2013-03-10 11:35:00,
2013-03-10 06:40:00,34.0,29.1,29.81,North,11,0.0,14.0,82,0.00,,,0.00,VWS V14.01,2013-03-10 11:40:00,
2013-03-10 06:45:00,34.0,29.1,29.84,NNE,23,6.0,11.0,82,0.00,,,0.00,VWS V14.01,2013-03-10 11:45:00,
2013-03-10 06:50:00,34.1,28.9,29.84,North,5,6.0,12.0,81,0.00,,,0.00,VWS V14.01,2013-03-10 11:50:00,
2013-03-10 06:52:00,33.8,29.8,29.79,NNE,19,4.0,11.0,85,0.00,,OVC013,0.00,VWS V14.01,2013-03-10 11:52:00,
2013-03-10 06:55:00,34.1,28.9,29.84,North,360,8.0,13.0,81,0.00,,,0.00,VWS V14.01,2013-03-10 11:55:00,
2013-03-10 06:57:00,33.8,29.8,29.79,NNE,32,5.0,14.0,85,0.00,,OVC013,0.00,VWS V14.01,2013-03-10 11:57:00,
2013-03-10 07:00:00,34.1,28.9,29.81,NNE,22,6.0,13.0,81,0.00,,---,0.01,VWS V14.01,2013-03-10 12:00:00,
2013-03-10 07:05:00,34.1,28.9,29.81,North,11,4.0,19.0,81,0.00,,OVC019,0.00,VWS V14.01,2013-03-10 12:05:00,
2013-03-10 07:10:00,34.1,28.9,29.81,NNE,22,7.0,12.0,81,0.00,,---,0.01,VWS V14.01,2013-03-10 12:10:00,
2013-03-10 07:12:00,33.8,29.5,29.83,North,5,0.0,9.0,84,0.00,,,0.00,VWS V14.01,2013-03-10 12:12:00,
2013-03-10 07:15:00,34.1,28.9,29.82,North,5,7.0,12.0,81,0.00,,OVC019,0.00,VWS V14.01,2013-03-10 12:15:00,
2013-03-10 07:17:00,33.8,29.5,29.82,NNE,14,7.0,11.0,84,0.00,,,0.00,VWS V14.01,2013-03-10 12:17:00,
2013-03-10 07:20:00,34.1,28.9,29.82,NE,34,4.0,13.0,81,0.00,,OVC019,0.00,VWS V14.01,2013-03-10 12:20:00,
2013-03-10 07:25:00,34.1,28.9,29.82,NE,51,5.0,12.0,81,0.00,,OVC019,0.00,VWS V14.01,2013-03-10 12:25:00,
2013-03-10 07:27:00,33.8,29.2,29.82,North,5,12.0,14.0,83,0.00,,,0.00,VWS V14.01,2013-03-10 12:27:00,
2013-03-10 07:30:00,34.3,29.1,29.87,NNE,22,4.0,9.0,81,0.00,,---,0.01,VWS V14.01,2013-03-10 12:30:00,
2013-03-10 07:35:00,34.3,29.1,29.87,NNE,22,6.0,12.0,81,0.00,,---,0.01,VWS V14.01,2013-03-10 12:35:00,
2013-03-10 07:40:00,34.3,29.1,29.87,NNE,22,5.0,13.0,81,0.00,,---,0.01,VWS V14.01,2013-03-10 12:40:00,
2013-03-10 07:45:00,34.3,29.1,29.89,NNE,20,5.0,16.0,81,0.00,,OVC019,0.00,VWS V14.01,2013-03-10 12:45:00,
2013-03-10 07:50:00,34.3,29.1,29.89,North,350,8.0,12.0,81,0.00,,OVC019,0.00,VWS V14.01,2013-03-10 12:50:00,
2013-03-10 07:55:00,34.3,29.1,29.89,NNE,24,3.0,11.0,81,0.00,,OVC019,0.00,VWS V14.01,2013-03-10 12:55:00,
2013-03-10 08:00:00,34.3,29.1,29.89,North,5,3.0,12.0,81,0.00,,OVC017,0.00,VWS V14.01,2013-03-10 13:00:00,
2013-03-10 08:02:00,34.1,28.9,29.81,NNE,17,6.0,13.0,81,0.00,,OVC019,0.00,VWS V14.01,2013-03-10 13:02:00,
2013-03-10 08:05:00,34.3,29.4,29.89,NNE,12,4.0,7.0,82,0.00,,OVC017,0.00,VWS V14.01,2013-03-10 13:05:00,
2013-03-10 08:10:00,34.1,29.2,29.89,North,360,4.0,12.0,82,0.00,,OVC017,0.00,VWS V14.01,2013-03-10 13:10:00,
2013-03-10 08:12:00,34.1,28.9,29.81,NNE,14,4.0,12.0,81,0.00,,OVC019,0.00,VWS V14.01,2013-03-10 13:12:00,
2013-03-10 08:15:00,34.1,29.2,29.90,NE,41,5.0,9.0,82,0.00,,OVC017,0.00,VWS V14.01,2013-03-10 13:15:00,
2013-03-10 08:20:00,34.1,29.2,29.90,NNW,348,10.0,12.0,82,0.00,,OVC017,0.00,VWS V14.01,2013-03-10 13:20:00,
2013-03-10 08:25:00,34.1,29.2,29.90,NE,40,4.0,14.0,82,0.00,,OVC017,0.00,VWS V14.01,2013-03-10 13:25:00,
2013-03-10 08:30:00,34.1,29.2,29.90,North,5,4.0,10.0,82,0.00,,OVC017,0.00,VWS V14.01,2013-03-10 13:30:00,
2013-03-10 08:32:00,34.3,29.1,29.87,NNE,12,2.0,8.0,81,0.00,,OVC019,0.00,VWS V14.01,2013-03-10 13:32:00,
2013-03-10 08:35:00,34.1,29.2,29.90,NNE,15,5.0,10.0,82,0.00,,OVC017,0.00,VWS V14.01,2013-03-10 13:35:00,
2013-03-10 08:37:00,34.3,29.1,29.87,NNE,21,4.0,12.0,81,0.00,,OVC019,0.00,VWS V14.01,2013-03-10 13:37:00,
2013-03-10 08:40:00,34.0,29.4,29.90,North,360,6.0,9.0,83,0.00,,OVC017,0.00,VWS V14.01,2013-03-10 13:40:00,
2013-03-10 08:42:00,34.3,29.1,29.87,NNE,13,3.0,13.0,81,0.00,,OVC019,0.00,VWS V14.01,2013-03-10 13:42:00,
2013-03-10 08:45:00,34.0,29.4,29.89,North,0,3.0,7.0,83,0.00,,---,0.01,VWS V14.01,2013-03-10 13:45:00,
2013-03-10 08:50:00,34.1,29.5,29.89,NNE,22,4.0,10.0,83,0.00,,---,0.01,VWS V14.01,2013-03-10 13:50:00,
2013-03-10 08:55:00,34.1,29.5,29.89,NNE,22,4.0,12.0,83,0.00,,---,0.01,VWS V14.01,2013-03-10 13:55:00,
2013-03-10 09:00:00,34.1,29.5,29.87,NE,51,4.0,12.0,83,0.00,,,0.00,VWS V14.01,2013-03-10 14:00:00,
2013-03-10 09:05:00,34.3,29.4,29.87,North,0,6.0,13.0,82,0.00,,---,0.01,VWS V14.01,2013-03-10 14:05:00,
2013-03-10 09:10:00,34.3,29.4,29.87,North,0,7.0,14.0,82,0.00,,---,0.01,VWS V14.01,2013-03-10 14:10:00,
2013-03-10 09:15:00,34.3,29.4,29.90,NNE,22,6.0,13.0,82,0.00,,---,0.01,VWS V14.01,2013-03-10 14:15:00,
2013-03-10 09:20:00,34.3,29.4,29.90,NNE,22,5.0,14.0,82,0.00,,---,0.01,VWS V14.01,2013-03-10 14:20:00,
2013-03-10 09:25:00,34.1,29.2,29.90,NNE,22,5.0,11.0,82,0.00,,---,0.01,VWS V14.01,2013-03-10 14:25:00,
2013-03-10 09:30:00,34.0,29.1,29.90,North,0,7.0,15.0,82,0.00,,---,0.01,VWS V14.01,2013-03-10 14:30:00,
2013-03-10 09:35:00,34.0,29.1,29.90,NNE,22,6.0,14.0,82,0.00,,---,0.01,VWS V14.01,2013-03-10 14:35:00,
2013-03-10 09:40:00,34.0,29.1,29.90,NNE,22,6.0,16.0,82,0.00,,---,0.01,VWS V14.01,2013-03-10 14:40:00,
2013-03-10 09:45:00,34.0,29.1,29.89,NNE,22,4.0,11.0,82,0.00,,---,0.01,VWS V14.01,2013-03-10 14:45:00,
2013-03-10 09:47:00,34.0,29.4,29.89,North,355,2.0,7.0,83,0.00,,OVC017,0.00,VWS V14.01,2013-03-10 14:47:00,
2013-03-10 09:50:00,33.8,28.9,29.89,NNE,22,6.0,11.0,82,0.00,,---,0.01,VWS V14.01,2013-03-10 14:50:00,
2013-03-10 09:52:00,34.1,29.5,29.89,NNE,21,7.0,10.0,83,0.00,,OVC017,0.00,VWS V14.01,2013-03-10 14:52:00,
2013-03-10 09:55:00,33.8,28.9,29.89,NNE,22,6.0,14.0,82,0.00,,---,0.01,VWS V14.01,2013-03-10 14:55:00,
2013-03-10 09:57:00,34.1,29.5,29.89,NNE,15,12.0,12.0,83,0.00,,OVC017,0.00,VWS V14.01,2013-03-10 14:57:00,
2013-03-10 10:00:00,33.8,28.9,29.91,North,11,8.0,11.0,82,0.01,,OVC013,0.01,VWS V14.01,2013-03-10 15:00:00,
2013-03-10 10:05:00,33.8,28.6,29.91,NE,49,3.0,11.0,81,0.01,,OVC013,0.01,VWS V14.01,2013-03-10 15:05:00,
2013-03-10 10:07:00,34.3,29.4,29.87,North,355,4.0,13.0,82,0.00,,,0.00,VWS V14.01,2013-03-10 15:07:00,
2013-03-10 10:10:00,33.8,28.6,29.91,NE,45,4.0,11.0,81,0.01,,---,0.02,VWS V14.01,2013-03-10 15:10:00,
2013-03-10 10:15:00,33.8,28.6,29.92,NNE,19,8.0,10.0,81,0.01,,OVC013,0.01,VWS V14.01,2013-03-10 15:15:00,
2013-03-10 10:17:00,34.3,29.4,29.90,North,360,5.0,13.0,82,0.00,,,0.00,VWS V14.01,2013-03-10 15:17:00,
2013-03-10 10:20:00,33.8,28.3,29.92,NNE,22,7.0,14.0,80,0.01,,---,0.02,VWS V14.01,2013-03-10 15:20:00,
2013-03-10 10:22:00,34.3,29.4,29.90,North,5,10.0,14.0,82,0.00,,,0.00,VWS V14.01,2013-03-10 15:22:00,
2013-03-10 10:25:00,33.8,28.3,29.92,NNE,22,6.0,15.0,80,0.01,,---,0.02,VWS V14.01,2013-03-10 15:25:00,
2013-03-10 10:30:00,33.7,28.2,29.91,NNE,22,7.0,15.0,80,0.01,,---,0.02,VWS V14.01,2013-03-10 15:30:00,
2013-03-10 10:32:00,34.0,29.1,29.90,North,360,11.0,15.0,82,0.00,,,0.00,VWS V14.01,2013-03-10 15:32:00,
2013-03-10 10:35:00,33.7,28.2,29.91,NNE,12,5.0,12.0,80,0.01,,OVC013,0.01,VWS V14.01,2013-03-10 15:35:00,
2013-03-10 10:40:00,33.7,28.2,29.91,NNE,22,5.0,11.0,80,0.01,,---,0.02,VWS V14.01,2013-03-10 15:40:00,
2013-03-10 10:42:00,34.0,29.1,29.90,NNE,15,9.0,16.0,82,0.00,,,0.00,VWS V14.01,2013-03-10 15:42:00,
2013-03-10 10:45:00,33.7,28.2,29.90,North,0,6.0,12.0,80,0.01,,---,0.02,VWS V14.01,2013-03-10 15:45:00,
2013-03-10 10:47:00,34.0,29.1,29.89,NE,36,2.0,11.0,82,0.00,,OVC013,0.00,VWS V14.01,2013-03-10 15:47:00,
2013-03-10 10:50:00,33.5,28.0,29.90,NNE,22,6.0,11.0,80,0.01,,---,0.02,VWS V14.01,2013-03-10 15:50:00,
2013-03-10 10:55:00,33.5,28.0,29.90,NNE,22,8.0,16.0,80,0.01,,---,0.02,VWS V14.01,2013-03-10 15:55:00,
2013-03-10 10:57:00,33.8,28.9,29.89,NNE,17,7.0,14.0,82,0.00,,OVC013,0.00,VWS V14.01,2013-03-10 15:57:00,
2013-03-10 11:00:00,33.4,27.9,29.90,NNE,22,8.0,15.0,80,0.01,,---,0.02,VWS V14.01,2013-03-10 16:00:00,
2013-03-10 11:05:00,33.4,27.9,29.90,NNE,19,9.0,17.0,80,0.00,,OVC013,0.01,VWS V14.01,2013-03-10 16:05:00,
2013-03-10 11:10:00,33.4,27.9,29.90,NNE,22,7.0,16.0,80,0.00,,---,0.02,VWS V14.01,2013-03-10 16:10:00,
2013-03-10 11:12:00,33.8,28.6,29.91,NE,36,4.0,11.0,81,0.01,,OVC013,0.01,VWS V14.01,2013-03-10 16:12:00,
2013-03-10 11:15:00,33.4,27.9,29.89,NNE,22,7.0,14.0,80,0.00,,---,0.02,VWS V14.01,2013-03-10 16:15:00,
2013-03-10 11:20:00,33.4,27.9,29.89,NNE,22,7.0,15.0,80,0.00,,---,0.02,VWS V14.01,2013-03-10 16:20:00,
2013-03-10 11:22:00,33.8,28.3,29.92,North,5,4.0,14.0,80,0.01,,OVC013,0.01,VWS V14.01,2013-03-10 16:22:00,
2013-03-10 11:25:00,33.4,27.6,29.89,NNE,22,8.0,17.0,79,0.00,,---,0.02,VWS V14.01,2013-03-10 16:25:00,
2013-03-10 11:27:00,33.8,28.3,29.92,North,11,4.0,15.0,80,0.01,,OVC013,0.01,VWS V14.01,2013-03-10 16:27:00,
2013-03-10 11:30:00,33.5,27.7,29.92,NNE,22,6.0,12.0,79,0.00,,---,0.02,VWS V14.01,2013-03-10 16:30:00,
2013-03-10 11:35:00,33.5,27.7,29.92,NNE,22,6.0,13.0,79,0.00,,---,0.02,VWS V14.01,2013-03-10 16:35:00,
2013-03-10 11:40:00,33.7,27.9,29.92,NE,45,4.0,10.0,79,0.00,,---,0.02,VWS V14.01,2013-03-10 16:40:00,
2013-03-10 11:42:00,33.7,28.2,29.91,NNE,24,10.0,11.0,80,0.01,,OVC013,0.01,VWS V14.01,2013-03-10 16:42:00,
2013-03-10 11:45:00,33.5,27.4,29.91,NNE,14,6.0,16.0,78,0.00,,OVC015,0.01,VWS V14.01,2013-03-10 16:45:00,
2013-03-10 11:47:00,33.7,28.2,29.90,NNE,22,7.0,11.0,80,0.01,,OVC013,0.01,VWS V14.01,2013-03-10 16:47:00,
2013-03-10 11:50:00,33.5,27.4,29.91,NNE,22,7.0,17.0,78,0.00,,---,0.02,VWS V14.01,2013-03-10 16:50:00,
2013-03-10 11:52:00,33.5,28.0,29.90,NE,53,3.0,11.0,80,0.01,,OVC013,0.01,VWS V14.01,2013-03-10 16:52:00,
2013-03-10 11:55:00,33.5,27.4,29.91,NNE,30,4.0,15.0,78,0.00,,OVC015,0.01,VWS V14.01,2013-03-10 16:55:00,
2013-03-10 12:00:00,33.5,27.4,29.91,North,5,9.0,13.0,78,0.00,,OVC015,0.01,VWS V14.01,2013-03-10 17:00:00,
2013-03-10 12:02:00,33.4,27.9,29.90,North,5,10.0,15.0,80,0.01,,OVC013,0.01,VWS V14.01,2013-03-10 17:02:00,
2013-03-10 12:05:00,33.5,27.4,29.91,NNE,30,3.0,11.0,78,0.00,,OVC015,0.01,VWS V14.01,2013-03-10 17:05:00,
2013-03-10 12:10:00,33.5,27.4,29.91,NNE,22,6.0,15.0,78,0.00,,---,0.02,VWS V14.01,2013-03-10 17:10:00,
2013-03-10 12:12:00,33.4,27.9,29.90,NE,37,3.0,15.0,80,0.00,,OVC013,0.01,VWS V14.01,2013-03-10 17:12:00,
2013-03-10 12:15:00,33.5,27.4,29.90,North,355,3.0,13.0,78,0.00,,OVC015,0.01,VWS V14.01,2013-03-10 17:15:00,
2013-03-10 12:17:00,33.4,27.9,29.89,NNE,30,6.0,14.0,80,0.00,,OVC015,0.01,VWS V14.01,2013-03-10 17:17:00,
2013-03-10 12:20:00,33.5,27.4,29.90,NNE,22,7.0,14.0,78,0.00,,---,0.02,VWS V14.01,2013-03-10 17:20:00,
2013-03-10 12:25:00,33.4,27.3,29.90,NNE,22,8.0,14.0,78,0.00,,---,0.02,VWS V14.01,2013-03-10 17:25:00,
2013-03-10 12:27:00,33.4,27.6,29.89,North,5,4.0,17.0,79,0.00,,OVC015,0.01,VWS V14.01,2013-03-10 17:27:00,
2013-03-10 12:30:00,33.4,27.3,29.89,NNE,22,7.0,14.0,78,0.00,,---,0.02,VWS V14.01,2013-03-10 17:30:00,
2013-03-10 12:32:00,33.5,27.7,29.92,ENE,69,7.0,12.0,79,0.00,,OVC015,0.01,VWS V14.01,2013-03-10 17:32:00,
2013-03-10 12:35:00,33.4,27.0,29.89,NNE,22,9.0,17.0,77,0.00,,---,0.02,VWS V14.01,2013-03-10 17:35:00,
2013-03-10 12:37:00,33.5,27.7,29.92,ENE,78,4.0,13.0,79,0.00,,OVC015,0.01,VWS V14.01,2013-03-10 17:37:00,
2013-03-10 12:40:00,33.4,27.0,29.89,NE,45,7.0,15.0,77,0.00,,---,0.02,VWS V14.01,2013-03-10 17:40:00,
2013-03-10 12:42:00,33.7,27.9,29.92,North,349,7.0,10.0,79,0.00,,OVC015,0.01,VWS V14.01,2013-03-10 17:42:00,
2013-03-10 12:45:00,33.5,27.1,29.88,NE,45,8.0,14.0,77,0.00,,---,0.02,VWS V14.01,2013-03-10 17:45:00,
2013-03-10 12:50:00,33.5,26.8,29.88,NE,45,8.0,16.0,76,0.00,,---,0.02,VWS V14.01,2013-03-10 17:50:00,
2013-03-10 12:52:00,33.5,27.4,29.91,NNW,346,6.0,17.0,78,0.00,,OVC015,0.01,VWS V14.01,2013-03-10 17:52:00,
2013-03-10 12:55:00,33.4,26.7,29.88,NNE,22,8.0,20.0,76,0.00,,---,0.02,VWS V14.01,2013-03-10 17:55:00,
2013-03-10 13:00:00,33.2,26.5,29.89,NNE,22,7.0,22.0,76,0.00,,---,0.02,VWS V14.01,2013-03-10 18:00:00,
2013-03-10 13:05:00,33.1,26.4,29.89,NNE,22,7.0,22.0,76,0.00,,---,0.02,VWS V14.01,2013-03-10 18:05:00,
2013-03-10 13:10:00,32.9,26.2,29.89,NNE,22,8.0,17.0,76,0.00,,---,0.02,VWS V14.01,2013-03-10 18:10:00,
2013-03-10 13:12:00,33.5,27.4,29.91,NNE,22,7.0,15.0,78,0.00,,OVC015,0.01,VWS V14.01,2013-03-10 18:12:00,
2013-03-10 13:15:00,32.8,26.1,29.88,NNE,22,10.0,21.0,76,0.00,,---,0.02,VWS V14.01,2013-03-10 18:15:00,
2013-03-10 13:20:00,32.8,26.1,29.88,NNE,22,8.0,16.0,76,0.00,,---,0.02,VWS V14.01,2013-03-10 18:20:00,
2013-03-10 13:22:00,33.5,27.4,29.90,NNE,29,12.0,14.0,78,0.00,,OVC015,0.01,VWS V14.01,2013-03-10 18:22:00,
2013-03-10 13:25:00,32.9,26.2,29.88,NNE,22,7.0,15.0,76,0.00,,---,0.02,VWS V14.01,2013-03-10 18:25:00,
2013-03-10 13:27:00,33.4,27.3,29.90,NE,46,6.0,14.0,78,0.00,,OVC015,0.01,VWS V14.01,2013-03-10 18:27:00,
2013-03-10 13:30:00,32.9,26.2,29.88,NNE,22,6.0,20.0,76,0.00,,---,0.02,VWS V14.01,2013-03-10 18:30:00,
2013-03-10 13:35:00,32.9,26.2,29.88,NNE,22,7.0,16.0,76,0.00,,---,0.02,VWS V14.01,2013-03-10 18:35:00,
2013-03-10 13:37:00,33.4,27.0,29.89,NE,51,12.0,17.0,77,0.00,,OVC015,0.01,VWS V14.01,2013-03-10 18:37:00,
2013-03-10 13:40:00,33.1,26.4,29.88,NNE,22,4.0,10.0,76,0.00,,---,0.02,VWS V14.01,2013-03-10 18:40:00,
2013-03-10 13:45:00,33.2,26.5,29.88,NNE,22,5.0,10.0,76,0.00,,---,0.02,VWS V14.01,2013-03-10 18:45:00,
2013-03-10 13:47:00,33.5,27.1,29.88,ENE,70,7.0,14.0,77,0.00,,OVC015,0.01,VWS V14.01,2013-03-10 18:47:00,
2013-03-10 13:50:00,33.1,26.0,29.88,NNE,22,7.0,14.0,75,0.00,,---,0.02,VWS V14.01,2013-03-10 18:50:00,
2013-03-10 13:52:00,33.5,26.8,29.88,NNE,33,5.0,16.0,76,0.00,,OVC015,0.01,VWS V14.01,2013-03-10 18:52:00,
2013-03-10 13:55:00,33.1,26.0,29.88,NNE,22,8.0,19.0,75,0.00,,---,0.02,VWS V14.01,2013-03-10 18:55:00,
2013-03-10 14:00:00,33.1,26.0,29.89,North,0,7.0,12.0,75,0.00,,---,0.02,VWS V14.01,2013-03-10 19:00:00,
2013-03-10 14:02:00,33.2,26.5,29.89,NNW,348,16.0,19.0,76,0.00,,OVC015,0.01,VWS V14.01,2013-03-10 19:02:00,
2013-03-10 14:05:00,32.9,25.9,29.89,NNE,22,5.0,11.0,75,0.00,,---,0.02,VWS V14.01,2013-03-10 19:05:00,
2013-03-10 14:07:00,33.1,26.4,29.89,NNE,18,6.0,16.0,76,0.00,,OVC015,0.01,VWS V14.01,2013-03-10 19:07:00,
2013-03-10 14:10:00,33.1,26.0,29.89,NNE,22,4.0,11.0,75,0.00,,---,0.02,VWS V14.01,2013-03-10 19:10:00,
2013-03-10 14:15:00,33.1,26.0,29.89,NNE,22,6.0,15.0,75,0.00,,---,0.02,VWS V14.01,2013-03-10 19:15:00,
2013-03-10 14:17:00,32.8,26.1,29.88,North,9,7.0,21.0,76,0.00,,OVC015,0.01,VWS V14.01,2013-03-10 19:17:00,
2013-03-10 14:20:00,33.1,26.0,29.89,North,0,9.0,20.0,75,0.00,,---,0.02,VWS V14.01,2013-03-10 19:20:00,
2013-03-10 14:22:00,32.8,26.1,29.88,North,5,7.0,16.0,76,0.00,,OVC015,0.01,VWS V14.01,2013-03-10 19:22:00,
2013-03-10 14:25:00,32.9,25.9,29.89,NNE,22,6.0,15.0,75,0.00,,---,0.02,VWS V14.01,2013-03-10 19:25:00,
2013-03-10 14:27:00,32.9,26.2,29.88,NNE,26,11.0,15.0,76,0.00,,OVC015,0.01,VWS V14.01,2013-03-10 19:27:00,
2013-03-10 14:30:00,32.9,25.9,29.89,NNE,22,5.0,14.0,75,0.00,,---,0.02,VWS V14.01,2013-03-10 19:30:00,
2013-03-10 14:35:00,32.8,25.8,29.89,NNE,22,8.0,15.0,75,0.00,,---,0.02,VWS V14.01,2013-03-10 19:35:00,
2013-03-10 14:37:00,32.9,26.2,29.88,NE,40,2.0,16.0,76,0.00,,OVC015,0.01,VWS V14.01,2013-03-10 19:37:00,
2013-03-10 14:40:00,32.7,25.7,29.89,NNE,22,9.0,17.0,75,0.00,,---,0.02,VWS V14.01,2013-03-10 19:40:00,
2013-03-10 14:42:00,33.1,26.4,29.88,NE,52,7.0,10.0,76,0.00,,OVC015,0.01,VWS V14.01,2013-03-10 19:42:00,
2013-03-10 14:45:00,32.7,25.7,29.88,NNE,22,8.0,15.0,75,0.00,,---,0.02,VWS V14.01,2013-03-10 19:45:00,
2013-03-10 14:50:00,32.7,26.0,29.88,NNE,22,6.0,12.0,76,0.00,,---,0.02,VWS V14.01,2013-03-10 19:50:00,
2013-03-10 14:52:00,33.1,26.0,29.88,NNE,16,10.0,14.0,75,0.00,,OVC015,0.01,VWS V14.01,2013-03-10 19:52:00,
2013-03-10 14:55:00,32.7,25.7,29.88,NNE,22,6.0,13.0,75,0.00,,---,0.02,VWS V14.01,2013-03-10 19:55:00,
2013-03-10 14:57:00,33.1,26.0,29.88,NE,38,4.0,19.0,75,0.00,,OVC015,0.01,VWS V14.01,2013-03-10 19:57:00,
2013-03-10 15:00:00,32.5,25.5,29.88,NNE,22,7.0,19.0,75,0.00,,---,0.02,VWS V14.01,2013-03-10 20:00:00,
2013-03-10 15:02:00,33.1,26.0,29.89,NNE,17,3.0,12.0,75,0.00,,OVC017,0.01,VWS V14.01,2013-03-10 20:02:00,
2013-03-10 15:05:00,32.5,25.5,29.88,NNE,22,9.0,19.0,75,0.00,,---,0.02,VWS V14.01,2013-03-10 20:05:00,
2013-03-10 15:10:00,32.5,25.5,29.88,NNE,22,7.0,14.0,75,0.00,,---,0.02,VWS V14.01,2013-03-10 20:10:00,
2013-03-10 15:12:00,33.1,26.0,29.89,NNE,28,3.0,11.0,75,0.00,,OVC017,0.01,VWS V14.01,2013-03-10 20:12:00,
2013-03-10 15:15:00,32.5,25.5,29.88,NNE,22,8.0,15.0,75,0.00,,---,0.02,VWS V14.01,2013-03-10 20:15:00,
2013-03-10 15:17:00,33.1,26.0,29.89,NNE,24,4.0,15.0,75,0.00,,OVC017,0.01,VWS V14.01,2013-03-10 20:17:00,
2013-03-10 15:20:00,32.5,25.5,29.88,NNE,22,6.0,12.0,75,0.00,,---,0.02,VWS V14.01,2013-03-10 20:20:00,
2013-03-10 15:22:00,33.1,26.0,29.89,NNE,13,4.0,16.0,75,0.00,,OVC017,0.01,VWS V14.01,2013-03-10 20:22:00,
2013-03-10 15:25:00,32.5,25.5,29.88,NE,45,7.0,15.0,75,0.00,,---,0.02,VWS V14.01,2013-03-10 20:25:00,
2013-03-10 15:27:00,32.9,25.9,29.89,NE,34,10.0,12.0,75,0.00,,OVC017,0.01,VWS V14.01,2013-03-10 20:27:00,
2013-03-10 15:30:00,32.4,25.4,29.87,NNE,22,9.0,20.0,75,0.00,,---,0.02,VWS V14.01,2013-03-10 20:30:00,
2013-03-10 15:32:00,32.9,25.9,29.89,NNE,28,3.0,14.0,75,0.00,,OVC017,0.01,VWS V14.01,2013-03-10 20:32:00,
2013-03-10 15:35:00,32.4,25.4,29.87,NNE,22,9.0,23.0,75,0.00,,---,0.02,VWS V14.01,2013-03-10 20:35:00,
2013-03-10 15:37:00,32.8,25.8,29.89,NNE,20,5.0,15.0,75,0.00,,OVC017,0.01,VWS V14.01,2013-03-10 20:37:00,
2013-03-10 15:40:00,32.4,25.4,29.87,NNE,22,6.0,23.0,75,0.00,,---,0.02,VWS V14.01,2013-03-10 20:40:00,
2013-03-10 15:42:00,32.7,25.7,29.89,NNE,19,9.0,17.0,75,0.00,,OVC017,0.01,VWS V14.01,2013-03-10 20:42:00,
2013-03-10 15:45:00,32.4,25.4,29.87,North,0,6.0,19.0,75,0.00,,---,0.02,VWS V14.01,2013-03-10 20:45:00,
2013-03-10 15:47:00,32.7,25.7,29.88,NE,34,6.0,13.0,75,0.00,,OVC017,0.01,VWS V14.01,2013-03-10 20:47:00,
2013-03-10 15:50:00,32.2,25.2,29.87,NNE,22,9.0,21.0,75,0.00,,---,0.02,VWS V14.01,2013-03-10 20:50:00,
2013-03-10 15:52:00,32.7,26.0,29.88,NNE,33,5.0,12.0,76,0.00,,OVC017,0.01,VWS V14.01,2013-03-10 20:52:00,
2013-03-10 15:55:00,32.2,25.2,29.87,North,0,8.0,20.0,75,0.00,,---,0.02,VWS V14.01,2013-03-10 20:55:00,
2013-03-10 15:57:00,32.7,25.7,29.88,NNE,17,5.0,11.0,75,0.00,,OVC017,0.01,VWS V14.01,2013-03-10 20:57:00,
2013-03-10 16:00:00,32.1,25.1,29.86,NNE,22,9.0,22.0,75,0.00,,---,0.02,VWS V14.01,2013-03-10 21:00:00,
2013-03-10 16:02:00,32.5,25.5,29.88,North,5,15.0,19.0,75,0.00,,OVC017,0.01,VWS V14.01,2013-03-10 21:02:00,
2013-03-10 16:05:00,32.1,25.1,29.86,NNE,22,8.0,20.0,75,0.00,,---,0.02,VWS V14.01,2013-03-10 21:05:00,
2013-03-10 16:07:00,32.5,25.5,29.88,NNE,27,5.0,19.0,75,0.00,,OVC017,0.01,VWS V14.01,2013-03-10 21:07:00,
2013-03-10 16:10:00,32.1,25.1,29.86,NNE,22,7.0,15.0,75,0.00,,---,0.02,VWS V14.01,2013-03-10 21:10:00,
2013-03-10 16:12:00,32.5,25.5,29.88,North,9,3.0,14.0,75,0.00,,OVC017,0.01,VWS V14.01,2013-03-10 21:12:00,
2013-03-10 16:15:00,32.1,25.1,29.86,NNE,22,8.0,16.0,75,0.00,,---,0.02,VWS V14.01,2013-03-10 21:15:00,
2013-03-10 16:17:00,32.5,25.5,29.88,NNE,33,7.0,15.0,75,0.00,,OVC017,0.01,VWS V14.01,2013-03-10 21:17:00,
2013-03-10 16:20:00,31.9,24.9,29.86,NNE,22,8.0,16.0,75,0.00,,---,0.02,VWS V14.01,2013-03-10 21:20:00,
2013-03-10 16:22:00,32.5,25.5,29.88,NE,40,5.0,12.0,75,0.00,,OVC017,0.01,VWS V14.01,2013-03-10 21:22:00,
2013-03-10 16:25:00,31.9,25.2,29.86,NNE,22,6.0,18.0,76,0.00,,---,0.02,VWS V14.01,2013-03-10 21:25:00,
2013-03-10 16:27:00,32.5,25.5,29.88,NE,45,5.0,15.0,75,0.00,,OVC017,0.01,VWS V14.01,2013-03-10 21:27:00,
2013-03-10 16:30:00,31.9,25.2,29.86,NNE,22,7.0,18.0,76,0.00,,---,0.02,VWS V14.01,2013-03-10 21:30:00,
2013-03-10 16:35:00,31.9,25.2,29.86,NE,45,6.0,18.0,76,0.00,,---,0.02,VWS V14.01,2013-03-10 21:35:00,
2013-03-10 16:37:00,32.4,25.4,29.87,NE,43,16.0,18.0,75,0.00,,OVC017,0.01,VWS V14.01,2013-03-10 21:37:00,
2013-03-10 16:40:00,31.8,25.1,29.86,NNE,22,8.0,18.0,76,0.00,,---,0.02,VWS V14.01,2013-03-10 21:40:00,
2013-03-10 16:45:00,31.8,25.1,29.86,NNE,22,6.0,15.0,76,0.00,,---,0.02,VWS V14.01,2013-03-10 21:45:00,
2013-03-10 16:47:00,32.4,25.4,29.87,NNW,345,7.0,19.0,75,0.00,,OVC017,0.01,VWS V14.01,2013-03-10 21:47:00,
2013-03-10 16:50:00,31.8,25.1,29.86,NNE,22,7.0,16.0,76,0.00,,---,0.02,VWS V14.01,2013-03-10 21:50:00,
2013-03-10 16:52:00,32.2,25.2,29.87,North,11,8.0,21.0,75,0.00,,OVC017,0.01,VWS V14.01,2013-03-10 21:52:00,
2013-03-10 16:55:00,31.8,25.1,29.86,North,0,6.0,13.0,76,0.00,,---,0.02,VWS V14.01,2013-03-10 21:55:00,
2013-03-10 17:00:00,31.8,25.1,29.86,NNE,22,7.0,20.0,76,0.00,,---,0.02,VWS V14.01,2013-03-10 22:00:00,
2013-03-10 17:02:00,32.1,25.1,29.86,NNE,19,6.0,22.0,75,0.00,,OVC017,0.01,VWS V14.01,2013-03-10 22:02:00,
2013-03-10 17:05:00,31.8,24.8,29.86,NNE,22,7.0,12.0,75,0.00,,---,0.02,VWS V14.01,2013-03-10 22:05:00,
2013-03-10 17:07:00,32.1,25.1,29.86,North,360,12.0,19.0,75,0.00,,OVC017,0.01,VWS V14.01,2013-03-10 22:07:00,
2013-03-10 17:10:00,31.8,24.8,29.86,NNE,22,8.0,19.0,75,0.00,,---,0.02,VWS V14.01,2013-03-10 22:10:00,
2013-03-10 17:12:00,32.1,25.1,29.86,NNE,17,3.0,15.0,75,0.00,,OVC017,0.01,VWS V14.01,2013-03-10 22:12:00,
2013-03-10 17:15:00,31.8,24.8,29.85,NNE,22,6.0,14.0,75,0.00,,---,0.02,VWS V14.01,2013-03-10 22:15:00,
2013-03-10 17:20:00,31.8,24.8,29.85,NNE,22,7.0,21.0,75,0.00,,---,0.02,VWS V14.01,2013-03-10 22:20:00,
2013-03-10 17:22:00,31.9,24.9,29.86,NE,37,3.0,16.0,75,0.00,,OVC017,0.01,VWS V14.01,2013-03-10 22:22:00,
2013-03-10 17:25:00,31.6,24.6,29.85,NNE,22,6.0,13.0,75,0.00,,---,0.02,VWS V14.01,2013-03-10 22:25:00,
2013-03-10 17:27:00,31.9,25.2,29.86,North,351,13.0,18.0,76,0.00,,OVC017,0.01,VWS V14.01,2013-03-10 22:27:00,
2013-03-10 17:30:00,31.6,24.6,29.86,NNE,22,5.0,14.0,75,0.00,,---,0.02,VWS V14.01,2013-03-10 22:30:00,
2013-03-10 17:32:00,31.9,25.2,29.86,NE,44,7.0,18.0,76,0.00,,OVC017,0.01,VWS V14.01,2013-03-10 22:32:00,
2013-03-10 17:35:00,31.6,24.6,29.86,NNE,22,8.0,18.0,75,0.00,,---,0.02,VWS V14.01,2013-03-10 22:35:00,
2013-03-10 17:40:00,31.5,24.5,29.86,NNE,22,8.0,21.0,75,0.00,,---,0.02,VWS V14.01,2013-03-10 22:40:00,
2013-03-10 17:42:00,31.8,25.1,29.86,North,9,7.0,17.0,76,0.00,,OVC017,0.01,VWS V14.01,2013-03-10 22:42:00,
2013-03-10 17:45:00,31.5,24.5,29.86,NNE,22,5.0,10.0,75,0.00,,---,0.02,VWS V14.01,2013-03-10 22:45:00,
2013-03-10 17:50:00,31.5,24.5,29.86,NNE,22,5.0,14.0,75,0.00,,---,0.02,VWS V14.01,2013-03-10 22:50:00,
2013-03-10 17:52:00,31.8,25.1,29.86,North,355,5.0,16.0,76,0.00,,OVC017,0.01,VWS V14.01,2013-03-10 22:52:00,
2013-03-10 17:55:00,31.5,24.5,29.86,NNE,22,5.0,13.0,75,0.00,,---,0.02,VWS V14.01,2013-03-10 22:55:00,
2013-03-10 17:57:00,31.8,25.1,29.86,NNW,346,6.0,13.0,76,0.00,,OVC017,0.01,VWS V14.01,2013-03-10 22:57:00,
2013-03-10 18:00:00,31.5,24.5,29.86,NNE,22,4.0,11.0,75,0.00,,---,0.02,VWS V14.01,2013-03-10 23:00:00,
2013-03-10 18:05:00,31.3,24.3,29.86,NNE,22,7.0,20.0,75,0.00,,---,0.02,VWS V14.01,2013-03-10 23:05:00,
2013-03-10 18:10:00,31.3,24.3,29.86,North,0,7.0,15.0,75,0.00,,---,0.02,VWS V14.01,2013-03-10 23:10:00,
2013-03-10 18:12:00,31.8,24.8,29.86,ENE,58,6.0,19.0,75,0.00,,OVC019,0.01,VWS V14.01,2013-03-10 23:12:00,
2013-03-10 18:15:00,31.3,24.3,29.86,NNE,22,5.0,12.0,75,0.00,,---,0.02,VWS V14.01,2013-03-10 23:15:00,
2013-03-10 18:20:00,31.2,24.5,29.86,NNE,22,5.0,10.0,76,0.00,,---,0.02,VWS V14.01,2013-03-10 23:20:00,
2013-03-10 18:22:00,31.8,24.8,29.85,North,5,5.0,21.0,75,0.00,,OVC019,0.01,VWS V14.01,2013-03-10 23:22:00,
2013-03-10 18:25:00,31.2,24.2,29.86,NNE,22,5.0,13.0,75,0.00,,---,0.02,VWS V14.01,2013-03-10 23:25:00,
2013-03-10 18:27:00,31.6,24.6,29.85,North,5,6.0,13.0,75,0.00,,OVC019,0.01,VWS V14.01,2013-03-10 23:27:00,
2013-03-10 18:30:00,31.0,24.0,29.87,NNE,22,5.0,14.0,75,0.00,,---,0.02,VWS V14.01,2013-03-10 23:30:00,
2013-03-10 18:32:00,31.6,24.6,29.86,ENE,57,7.0,14.0,75,0.00,,OVC019,0.01,VWS V14.01,2013-03-10 23:32:00,
2013-03-10 18:35:00,31.0,24.0,29.87,NNE,22,7.0,16.0,75,0.00,,---,0.02,VWS V14.01,2013-03-10 23:35:00,
2013-03-10 18:40:00,31.0,24.0,29.87,NNE,22,6.0,13.0,75,0.00,,---,0.02,VWS V14.01,2013-03-10 23:40:00,
2013-03-10 18:42:00,31.5,24.5,29.86,North,5,6.0,21.0,75,0.00,,OVC019,0.01,VWS V14.01,2013-03-10 23:42:00,
2013-03-10 18:45:00,30.9,23.9,29.87,NNE,22,6.0,17.0,75,0.00,,---,0.02,VWS V14.01,2013-03-10 23:45:00,
2013-03-10 18:47:00,31.5,24.5,29.86,NNE,26,7.0,10.0,75,0.00,,OVC019,0.01,VWS V14.01,2013-03-10 23:47:00,
2013-03-10 18:50:00,30.9,23.6,29.87,NNE,22,7.0,18.0,74,0.00,,---,0.02,VWS V14.01,2013-03-10 23:50:00,
2013-03-10 18:52:00,31.5,24.5,29.86,North,9,3.0,13.0,75,0.00,,OVC019,0.01,VWS V14.01,2013-03-10 23:52:00,
2013-03-10 18:55:00,30.9,23.6,29.87,NNE,22,5.0,13.0,74,0.00,,---,0.02,VWS V14.01,2013-03-10 23:55:00,
2013-03-10 18:57:00,31.5,24.5,29.86,North,5,7.0,13.0,75,0.00,,OVC019,0.01,VWS V14.01,2013-03-10 23:57:00,
2013-03-10 19:00:00,30.9,23.6,29.88,NNE,22,5.0,12.0,74,0.00,,---,0.02,VWS V14.01,2013-03-11 00:00:00,
2013-03-10 19:02:00,31.5,24.5,29.86,NE,55,6.0,10.0,75,0.00,,OVC019,0.01,VWS V14.01,2013-03-11 00:02:00,
2013-03-10 19:05:00,30.7,23.4,29.88,NNE,22,6.0,11.0,74,0.00,,---,0.02,VWS V14.01,2013-03-11 00:05:00,
2013-03-10 19:10:00,30.7,23.4,29.88,NNE,22,6.0,13.0,74,0.00,,---,0.02,VWS V14.01,2013-03-11 00:10:00,
2013-03-10 19:12:00,31.3,24.3,29.86,NNE,19,4.0,15.0,75,0.00,,OVC019,0.01,VWS V14.01,2013-03-11 00:12:00,
2013-03-10 19:15:00,30.7,23.4,29.88,NNE,22,6.0,12.0,74,0.00,,---,0.02,VWS V14.01,2013-03-11 00:15:00,
2013-03-10 19:20:00,30.6,23.3,29.88,NNE,22,7.0,17.0,74,0.00,,---,0.02,VWS V14.01,2013-03-11 00:20:00,
2013-03-10 19:25:00,30.6,23.3,29.88,NNE,22,6.0,16.0,74,0.00,,---,0.02,VWS V14.01,2013-03-11 00:25:00,
2013-03-10 19:27:00,31.2,24.2,29.86,NNE,18,3.0,13.0,75,0.00,,OVC019,0.01,VWS V14.01,2013-03-11 00:27:00,
2013-03-10 19:30:00,30.6,23.3,29.88,NE,45,5.0,10.0,74,0.00,,---,0.02,VWS V14.01,2013-03-11 00:30:00,
2013-03-10 19:32:00,31.0,24.0,29.87,North,5,12.0,12.0,75,0.00,,OVC019,0.01,VWS V14.01,2013-03-11 00:32:00,
2013-03-10 19:35:00,30.6,23.3,29.88,NNE,22,5.0,13.0,74,0.00,,---,0.02,VWS V14.01,2013-03-11 00:35:00,
2013-03-10 19:37:00,31.0,24.0,29.87,North,5,2.0,16.0,75,0.00,,OVC019,0.01,VWS V14.01,2013-03-11 00:37:00,
2013-03-10 19:40:00,30.4,23.1,29.88,NNE,22,6.0,15.0,74,0.00,,---,0.02,VWS V14.01,2013-03-11 00:40:00,
2013-03-10 19:42:00,31.0,24.0,29.87,NNE,23,6.0,13.0,75,0.00,,OVC019,0.01,VWS V14.01,2013-03-11 00:42:00,
2013-03-10 19:45:00,30.4,23.1,29.88,NNE,22,5.0,12.0,74,0.00,,---,0.02,VWS V14.01,2013-03-11 00:45:00,
2013-03-10 19:47:00,30.9,23.9,29.87,NNE,20,7.0,17.0,75,0.00,,OVC019,0.01,VWS V14.01,2013-03-11 00:47:00,
2013-03-10 19:50:00,30.4,23.1,29.88,NNE,22,5.0,14.0,74,0.00,,---,0.02,VWS V14.01,2013-03-11 00:50:00,
2013-03-10 19:52:00,30.9,23.6,29.87,NE,47,6.0,18.0,74,0.00,,OVC019,0.01,VWS V14.01,2013-03-11 00:52:00,
2013-03-10 19:55:00,30.4,23.1,29.88,NNE,22,5.0,17.0,74,0.00,,---,0.02,VWS V14.01,2013-03-11 00:55:00,
2013-03-10 20:00:00,30.4,23.1,29.88,NNE,22,6.0,11.0,74,0.00,,---,0.02,VWS V14.01,2013-03-11 01:00:00,
2013-03-10 20:02:00,30.9,23.6,29.88,NNE,33,5.0,12.0,74,0.00,,OVC019,0.01,VWS V14.01,2013-03-11 01:02:00,
2013-03-10 20:05:00,30.4,23.1,29.88,NNE,22,5.0,11.0,74,0.00,,---,0.02,VWS V14.01,2013-03-11 01:05:00,
2013-03-10 20:10:00,30.3,23.3,29.88,NNE,22,5.0,10.0,75,0.00,,---,0.02,VWS V14.01,2013-03-11 01:10:00,
2013-03-10 20:12:00,30.7,23.4,29.88,NE,34,3.0,12.0,74,0.00,,OVC019,0.01,VWS V14.01,2013-03-11 01:12:00,
2013-03-10 20:15:00,30.3,23.3,29.88,North,0,5.0,11.0,75,0.00,,---,0.02,VWS V14.01,2013-03-11 01:15:00,
2013-03-10 20:17:00,30.7,23.4,29.88,NNE,17,7.0,12.0,74,0.00,,OVC019,0.01,VWS V14.01,2013-03-11 01:17:00,
2013-03-10 20:20:00,30.3,23.3,29.88,NNE,22,6.0,13.0,75,0.00,,---,0.02,VWS V14.01,2013-03-11 01:20:00,
2013-03-10 20:22:00,30.6,23.3,29.88,NNE,19,14.0,17.0,74,0.00,,OVC019,0.01,VWS V14.01,2013-03-11 01:22:00,
2013-03-10 20:25:00,30.3,23.3,29.88,NNE,22,3.0,7.0,75,0.00,,---,0.02,VWS V14.01,2013-03-11 01:25:00,
2013-03-10 20:27:00,30.6,23.3,29.88,NNE,30,2.0,16.0,74,0.00,,OVC019,0.01,VWS V14.01,2013-03-11 01:27:00,
2013-03-10 20:30:00,30.3,23.3,29.89,NNE,22,5.0,9.0,75,0.00,,---,0.02,VWS V14.01,2013-03-11 01:30:00,
2013-03-10 20:35:00,30.1,23.1,29.89,NNE,22,6.0,11.0,75,0.00,,---,0.02,VWS V14.01,2013-03-11 01:35:00,
2013-03-10 20:37:00,30.6,23.3,29.88,NNE,32,3.0,13.0,74,0.00,,OVC019,0.01,VWS V14.01,2013-03-11 01:37:00,
2013-03-10 20:40:00,30.1,23.1,29.89,NE,45,4.0,12.0,75,0.00,,---,0.02,VWS V14.01,2013-03-11 01:40:00,
2013-03-10 20:45:00,30.1,23.1,29.89,NNE,22,6.0,12.0,75,0.00,,---,0.02,VWS V14.01,2013-03-11 01:45:00,
2013-03-10 20:47:00,30.4,23.1,29.88,NE,53,6.0,12.0,74,0.00,,OVC019,0.01,VWS V14.01,2013-03-11 01:47:00,
2013-03-10 20:50:00,30.1,23.1,29.89,NNE,22,4.0,10.0,75,0.00,,---,0.02,VWS V14.01,2013-03-11 01:50:00,
2013-03-10 20:52:00,30.4,23.1,29.88,NNE,22,1.0,14.0,74,0.00,,OVC019,0.01,VWS V14.01,2013-03-11 01:52:00,
2013-03-10 20:55:00,30.1,23.5,29.89,NNE,22,4.0,7.0,76,0.00,,---,0.02,VWS V14.01,2013-03-11 01:55:00,
2013-03-10 21:00:00,30.0,23.4,29.88,NNE,22,5.0,12.0,76,0.00,,---,0.02,VWS V14.01,2013-03-11 02:00:00,
2013-03-10 21:02:00,30.4,23.1,29.88,NNE,17,9.0,11.0,74,0.00,,OVC021,0.01,VWS V14.01,2013-03-11 02:02:00,
2013-03-10 21:05:00,30.0,23.4,29.88,NE,45,6.0,16.0,76,0.00,,---,0.02,VWS V14.01,2013-03-11 02:05:00,
2013-03-10 21:07:00,30.4,23.1,29.88,NNW,346,5.0,11.0,74,0.00,,OVC021,0.01,VWS V14.01,2013-03-11 02:07:00,
2013-03-10 21:10:00,30.0,23.4,29.88,NNE,22,4.0,10.0,76,0.00,,---,0.02,VWS V14.01,2013-03-11 02:10:00,
2013-03-10 21:15:00,30.0,23.4,29.88,NNE,22,6.0,13.0,76,0.00,,---,0.02,VWS V14.01,2013-03-11 02:15:00,
2013-03-10 21:17:00,30.3,23.3,29.88,North,9,2.0,11.0,75,0.00,,OVC021,0.01,VWS V14.01,2013-03-11 02:17:00,
2013-03-10 21:20:00,30.0,23.4,29.88,NNE,22,4.0,10.0,76,0.00,,---,0.02,VWS V14.01,2013-03-11 02:20:00,
2013-03-10 21:22:00,30.3,23.3,29.88,NE,40,3.0,13.0,75,0.00,,OVC021,0.01,VWS V14.01,2013-03-11 02:22:00,
2013-03-10 21:25:00,30.0,23.4,29.88,NNE,22,5.0,13.0,76,0.00,,---,0.02,VWS V14.01,2013-03-11 02:25:00,
2013-03-10 21:27:00,30.3,23.3,29.88,NNE,20,3.0,7.0,75,0.00,,OVC021,0.01,VWS V14.01,2013-03-11 02:27:00,
2013-03-10 21:30:00,29.8,23.2,29.87,North,0,6.0,15.0,76,0.00,,---,0.02,VWS V14.01,2013-03-11 02:30:00,
2013-03-10 21:32:00,30.3,23.3,29.89,NNE,24,4.0,9.0,75,0.00,,OVC021,0.01,VWS V14.01,2013-03-11 02:32:00,
2013-03-10 21:35:00,29.8,23.2,29.87,NNE,22,5.0,12.0,76,0.00,,---,0.02,VWS V14.01,2013-03-11 02:35:00,
2013-03-10 21:37:00,30.1,23.1,29.89,NNE,26,5.0,11.0,75,0.00,,OVC021,0.01,VWS V14.01,2013-03-11 02:37:00,
2013-03-10 21:40:00,29.8,23.2,29.87,NNE,22,4.0,11.0,76,0.00,,---,0.02,VWS V14.01,2013-03-11 02:40:00,
2013-03-10 21:42:00,30.1,23.1,29.89,NE,40,2.0,12.0,75,0.00,,OVC021,0.01,VWS V14.01,2013-03-11 02:42:00,
2013-03-10 21:45:00,29.7,23.1,29.86,NNE,22,7.0,12.0,76,0.00,,---,0.02,VWS V14.01,2013-03-11 02:45:00,
2013-03-10 21:50:00,29.7,23.1,29.86,NNE,22,4.0,13.0,76,0.00,,---,0.02,VWS V14.01,2013-03-11 02:50:00,
2013-03-10 21:52:00,30.1,23.1,29.89,NNE,17,5.0,10.0,75,0.00,,OVC021,0.01,VWS V14.01,2013-03-11 02:52:00,
2013-03-10 21:55:00,29.7,23.1,29.86,NNE,22,4.0,12.0,76,0.00,,---,0.02,VWS V14.01,2013-03-11 02:55:00,
2013-03-10 22:00:00,29.5,22.9,29.85,North,9,7.0,10.0,76,0.00,,OVC019,0.01,VWS V14.01,2013-03-11 03:00:00,
2013-03-10 22:02:00,30.0,23.4,29.88,NE,36,6.0,12.0,76,0.00,,OVC019,0.01,VWS V14.01,2013-03-11 03:02:00,
2013-03-10 22:05:00,29.5,22.9,29.85,NE,41,6.0,13.0,76,0.00,,OVC019,0.01,VWS V14.01,2013-03-11 03:05:00,
2013-03-10 22:07:00,30.0,23.4,29.88,NE,34,3.0,16.0,76,0.00,,OVC019,0.01,VWS V14.01,2013-03-11 03:07:00,
2013-03-10 22:10:00,29.5,22.9,29.85,North,5,7.0,11.0,76,0.00,,OVC019,0.01,VWS V14.01,2013-03-11 03:10:00,
2013-03-10 22:12:00,30.0,23.4,29.88,NNE,15,6.0,10.0,76,0.00,,OVC019,0.01,VWS V14.01,2013-03-11 03:12:00,
2013-03-10 22:15:00,29.4,22.8,29.85,NNE,32,10.0,17.0,76,0.00,,OVC019,0.01,VWS V14.01,2013-03-11 03:15:00,
2013-03-10 22:17:00,30.0,23.4,29.88,North,5,10.0,13.0,76,0.00,,OVC019,0.01,VWS V14.01,2013-03-11 03:17:00,
2013-03-10 22:20:00,29.4,22.8,29.85,North,10,3.0,11.0,76,0.00,,OVC019,0.01,VWS V14.01,2013-03-11 03:20:00,
2013-03-10 22:22:00,30.0,23.4,29.88,NE,36,5.0,10.0,76,0.00,,OVC019,0.01,VWS V14.01,2013-03-11 03:22:00,
2013-03-10 22:25:00,29.4,22.8,29.85,NE,42,7.0,11.0,76,0.00,,OVC019,0.01,VWS V14.01,2013-03-11 03:25:00,
2013-03-10 22:27:00,30.0,23.4,29.88,North,5,4.0,13.0,76,0.00,,OVC019,0.01,VWS V14.01,2013-03-11 03:27:00,
2013-03-10 22:30:00,29.3,22.7,29.84,NNE,32,4.0,16.0,76,0.00,,OVC019,0.01,VWS V14.01,2013-03-11 03:30:00,
2013-03-10 22:32:00,29.8,23.2,29.87,NNE,23,5.0,15.0,76,0.00,,OVC019,0.01,VWS V14.01,2013-03-11 03:32:00,
2013-03-10 22:35:00,29.3,22.7,29.84,North,9,3.0,10.0,76,0.00,,OVC019,0.01,VWS V14.01,2013-03-11 03:35:00,
2013-03-10 22:37:00,29.8,23.2,29.87,NNE,13,2.0,12.0,76,0.00,,OVC019,0.01,VWS V14.01,2013-03-11 03:37:00,
2013-03-10 22:40:00,29.3,22.7,29.84,North,5,7.0,13.0,76,0.00,,OVC019,0.01,VWS V14.01,2013-03-11 03:40:00,
2013-03-10 22:42:00,29.8,23.2,29.87,North,5,5.0,11.0,76,0.00,,OVC019,0.01,VWS V14.01,2013-03-11 03:42:00,
2013-03-10 22:45:00,29.1,22.5,29.83,North,350,7.0,15.0,76,0.00,,OVC019,0.01,VWS V14.01,2013-03-11 03:45:00,
2013-03-10 22:47:00,29.7,23.1,29.86,NNE,20,4.0,12.0,76,0.00,,OVC019,0.01,VWS V14.01,2013-03-11 03:47:00,
2013-03-10 22:50:00,29.1,22.5,29.83,NNE,16,4.0,14.0,76,0.00,,OVC019,0.01,VWS V14.01,2013-03-11 03:50:00,
2013-03-10 22:52:00,29.7,23.1,29.86,North,9,9.0,13.0,76,0.00,,OVC019,0.01,VWS V14.01,2013-03-11 03:52:00,
2013-03-10 22:55:00,29.1,22.5,29.83,NNE,20,3.0,9.0,76,0.00,,OVC019,0.01,VWS V14.01,2013-03-11 03:55:00,
2013-03-10 22:57:00,29.7,23.1,29.86,NE,34,6.0,11.0,76,0.00,,OVC019,0.01,VWS V14.01,2013-03-11 03:57:00,
2013-03-10 23:00:00,29.1,22.5,29.83,NNW,348,5.0,7.0,76,0.00,,OVC019,0.01,VWS V14.01,2013-03-11 04:00:00,
2013-03-10 23:05:00,29.1,22.5,29.83,NE,40,6.0,12.0,76,0.00,,OVC019,0.01,VWS V14.01,2013-03-11 04:05:00,
2013-03-10 23:10:00,29.0,22.1,29.83,North,5,11.0,18.0,75,0.00,,OVC019,0.01,VWS V14.01,2013-03-11 04:10:00,
2013-03-10 23:15:00,29.0,22.1,29.83,NNE,26,4.0,11.0,75,0.00,,OVC019,0.01,VWS V14.01,2013-03-11 04:15:00,
2013-03-10 23:20:00,29.0,22.4,29.83,North,11,4.0,11.0,76,0.00,,OVC019,0.01,VWS V14.01,2013-03-11 04:20:00,
2013-03-10 23:25:00,29.0,22.4,29.83,NNE,24,3.0,16.0,76,0.00,,OVC019,0.01,VWS V14.01,2013-03-11 04:25:00,
2013-03-10 23:30:00,29.0,22.4,29.83,NE,53,6.0,14.0,76,0.00,,OVC019,0.01,VWS V14.01,2013-03-11 04:30:00,
2013-03-10 23:35:00,28.8,22.2,29.83,NE,52,5.0,11.0,76,0.00,,OVC019,0.01,VWS V14.01,2013-03-11 04:35:00,
2013-03-10 23:40:00,28.8,22.2,29.83,NNE,21,4.0,9.0,76,0.00,,OVC019,0.01,VWS V14.01,2013-03-11 04:40:00,
2013-03-10 23:45:00,28.8,22.2,29.83,North,5,4.0,10.0,76,0.00,,OVC019,0.01,VWS V14.01,2013-03-11 04:45:00,
2013-03-10 23:50:00,28.8,22.2,29.83,NNE,23,6.0,10.0,76,0.00,,OVC019,0.01,VWS V14.01,2013-03-11 04:50:00,
2013-03-10 23:55:00,28.7,22.1,29.83,NNE,22,6.0,11.0,76,0.00,,OVC019,0.01,VWS V14.01,2013-03-11 04:55:00,